TDRS 3                  
1 19548U 88091B   19264.08035517 -.00000297  00000-0  00000+0 0  9992
2 19548  14.3014 359.8640 0034609 315.2162  24.7330  1.00272545100689
IUS R/B(1)              
1 19549U 88091C   19263.62418376  .00000375  00000-0  20180-3 0  9991
2 19549  26.6747 353.0402 6898700  36.3204 354.8126  2.75170410287187
IUS R/B(2)              
1 19550U 88091D   19263.86264292  .00000115  00000-0  00000-0 0  9993
2 19550  14.8815 351.7353 0017034 252.5562 103.9466  1.00478123105379